When you browse on this site, cookies collect data to enhance your experience and personalize the content and advertising you see.
Visit our Privacy Policy to learn more. By continuing to use the site, you agree to this use of cookies and data.
  • Em Portugal
  • Lista de países
  • Para 7 dias
  • Temperatura da água
  • Mapa do tempo
  • Widgets de tempo
  • user-avatar
    Iniciar Sessão

    Previsão horária em Gornouralskiy

    Hoje, 31 Maio, Domingo

    Tempo Temperatura Precipitação Vento Pressão Humidade
    00:00 +12°C° 0.3 mm 2 m/s 738 mmHg 94%
    01:00 +12°C° 0.3 mm 2 m/s 738 mmHg 95%
    02:00 +10°C° 0.1 mm 2 m/s 738 mmHg 93%
    03:00 +10°C° 0.1 mm 2 m/s 737 mmHg 92%
    04:00 +9°C° 0 mm 3 m/s 737 mmHg 86%
    05:00 +9°C° 0.2 mm 3 m/s 737 mmHg 86%
    06:00 +8°C° 0.2 mm 3 m/s 737 mmHg 87%
    07:00 +8°C° 0.2 mm 3 m/s 737 mmHg 87%
    08:00 +8°C° 0 mm 3 m/s 736 mmHg 85%
    09:00 +7°C° 0 mm 4 m/s 736 mmHg 82%
    10:00 +7°C° 0 mm 4 m/s 736 mmHg 80%
    11:00 +7°C° 0 mm 4 m/s 736 mmHg 77%
    12:00 +7°C° 0 mm 4 m/s 736 mmHg 74%
    13:00 +8°C° 0 mm 5 m/s 736 mmHg 71%
    14:00 +7°C° 0 mm 5 m/s 736 mmHg 72%
    15:00 +7°C° 0 mm 4 m/s 736 mmHg 73%
    16:00 +7°C° 0 mm 4 m/s 736 mmHg 73%
    17:00 +7°C° 0 mm 4 m/s 735 mmHg 73%
    18:00 +7°C° 0 mm 4 m/s 735 mmHg 72%
    19:00 +7°C° 0 mm 4 m/s 734 mmHg 71%
    20:00 +7°C° 0 mm 4 m/s 734 mmHg 72%
    21:00 +7°C° 0 mm 4 m/s 734 mmHg 73%
    22:00 +6°C° 0 mm 4 m/s 733 mmHg 74%
    23:00 +6°C° 1.8 mm 4 m/s 733 mmHg 81%

    Amanhã, 1 Junho, Segunda-feira

    Tempo Temperatura Precipitação Vento Pressão Humidade
    00:00 +5°C° 1.8 mm 3 m/s 732 mmHg 88%
    01:00 +5°C° 1.8 mm 3 m/s 732 mmHg 95%
    02:00 +5°C° 2 mm 4 m/s 731 mmHg 95%
    03:00 +5°C° 2 mm 5 m/s 731 mmHg 95%
    04:00 +5°C° 2 mm 5 m/s 731 mmHg 96%
    05:00 +5°C° 0.7 mm 5 m/s 731 mmHg 96%
    06:00 +5°C° 0.7 mm 4 m/s 730 mmHg 96%
    07:00 +5°C° 0.7 mm 3 m/s 730 mmHg 97%
    08:00 +5°C° 1.1 mm 3 m/s 731 mmHg 97%
    09:00 +5°C° 1.1 mm 3 m/s 731 mmHg 97%
    10:00 +5°C° 1.1 mm 4 m/s 732 mmHg 97%
    11:00 +5°C° 0.3 mm 3 m/s 732 mmHg 97%
    12:00 +5°C° 0.3 mm 3 m/s 733 mmHg 97%
    13:00 +5°C° 0.3 mm 3 m/s 733 mmHg 97%
    14:00 +5°C° 0.5 mm 3 m/s 734 mmHg 97%
    15:00 +5°C° 0.5 mm 3 m/s 734 mmHg 97%
    16:00 +4°C° 0.5 mm 3 m/s 735 mmHg 97%
    17:00 +4°C° 0.3 mm 3 m/s 735 mmHg 97%
    18:00 +4°C° 0.3 mm 3 m/s 735 mmHg 97%
    19:00 +6°C° 0.3 mm 2 m/s 735 mmHg 97%
    20:00 +6°C° 0.1 mm 2 m/s 736 mmHg 97%
    21:00 +6°C° 0.1 mm 2 m/s 736 mmHg 98%
    22:00 +6°C° 0.1 mm 2 m/s 737 mmHg 98%
    23:00 +5°C° 0 mm 2 m/s 737 mmHg 98%

    Depois de amanhã, 2 Junho, Terça-feira

    Tempo Temperatura Precipitação Vento Pressão Humidade
    00:00 +5°C° 0 mm 2 m/s 737 mmHg 98%
    01:00 +5°C° 0 mm 2 m/s 737 mmHg 98%
    02:00 +5°C° 0 mm 2 m/s 738 mmHg 98%
    03:00 +5°C° 0 mm 2 m/s 738 mmHg 98%
    04:00 +4°C° 0 mm 2 m/s 738 mmHg 98%
    05:00 +5°C° 0 mm 2 m/s 738 mmHg 95%
    06:00 +6°C° 0 mm 2 m/s 739 mmHg 92%
    07:00 +8°C° 0 mm 1 m/s 739 mmHg 89%
    08:00 +10°C° 0.1 mm 1 m/s 739 mmHg 79%
    09:00 +12°C° 0.1 mm 1 m/s 739 mmHg 70%
    10:00 +14°C° 0.1 mm 1 m/s 740 mmHg 60%
    11:00 +15°C° 0.1 mm 1 m/s 740 mmHg 56%
    12:00 +16°C° 0.1 mm 1 m/s 740 mmHg 52%
    13:00 +18°C° 0.1 mm 1 m/s 740 mmHg 47%
    14:00 +18°C° 0 mm 1 m/s 740 mmHg 47%
    15:00 +16°C° 0 mm 2 m/s 740 mmHg 47%
    16:00 +16°C° 0 mm 2 m/s 740 mmHg 47%
    17:00 +15°C° 0.1 mm 2 m/s 739 mmHg 56%
    18:00 +14°C° 0.1 mm 2 m/s 739 mmHg 65%
    19:00 +13°C° 0.1 mm 2 m/s 739 mmHg 73%
    20:00 +11°C° 0 mm 1 m/s 740 mmHg 79%
    21:00 +10°C° 0 mm 1 m/s 740 mmHg 84%
    22:00 +8°C° 0 mm 1 m/s 740 mmHg 89%
    23:00 +7°C° 0 mm 1 m/s 740 mmHg 90%

    3 Junho, Quarta-feira

    Tempo Temperatura Precipitação Vento Pressão Humidade
    00:00 +7°C° 0 mm 1 m/s 740 mmHg 91%
    01:00 +6°C° 0 mm 1 m/s 740 mmHg 93%
    02:00 +6°C° 0 mm 1 m/s 740 mmHg 92%
    03:00 +6°C° 0 mm 1 m/s 741 mmHg 91%
    04:00 +6°C° 0 mm 1 m/s 741 mmHg 90%
    05:00 +8°C° 0 mm 1 m/s 741 mmHg 82%
    06:00 +10°C° 0 mm 1 m/s 741 mmHg 74%
    07:00 +12°C° 0 mm 1 m/s 741 mmHg 65%
    08:00 +13°C° 0 mm 1 m/s 741 mmHg 58%
    09:00 +15°C° 0 mm 1 m/s 741 mmHg 52%
    10:00 +18°C° 0 mm 1 m/s 741 mmHg 45%
    11:00 +18°C° 0 mm 1 m/s 741 mmHg 43%
    12:00 +19°C° 0 mm 1 m/s 740 mmHg 41%
    13:00 +19°C° 0 mm 1 m/s 740 mmHg 40%
    14:00 +18°C° 0 mm 2 m/s 740 mmHg 42%
    15:00 +17°C° 0 mm 2 m/s 740 mmHg 44%
    16:00 +17°C° 0 mm 3 m/s 740 mmHg 47%
    17:00 +16°C° 0 mm 2 m/s 740 mmHg 52%
    18:00 +15°C° 0 mm 2 m/s 740 mmHg 58%
    19:00 +14°C° 0 mm 2 m/s 740 mmHg 64%
    20:00 +12°C° 0 mm 1 m/s 740 mmHg 71%
    21:00 +10°C° 0 mm 1 m/s 741 mmHg 78%
    22:00 +8°C° 0 mm 1 m/s 741 mmHg 85%
    23:00 +8°C° 0 mm 1 m/s 741 mmHg 87%

    4 Junho, Quinta-feira

    Tempo Temperatura Precipitação Vento Pressão Humidade
    00:00 +7°C° 0 mm 1 m/s 741 mmHg 89%
    01:00 +6°C° 0 mm 1 m/s 741 mmHg 91%
    02:00 +6°C° 0 mm 1 m/s 742 mmHg 92%
    03:00 +6°C° 0 mm 1 m/s 742 mmHg 92%
    04:00 +6°C° 0 mm 1 m/s 742 mmHg 92%
    05:00 +8°C° 0 mm 1 m/s 742 mmHg 83%
    06:00 +10°C° 0 mm 1 m/s 742 mmHg 74%
    07:00 +13°C° 0 mm 1 m/s 742 mmHg 65%
    08:00 +14°C° 0 mm 1 m/s 742 mmHg 59%
    09:00 +15°C° 0 mm 2 m/s 742 mmHg 52%
    10:00 +17°C° 0 mm 2 m/s 742 mmHg 46%
    11:00 +18°C° 0 mm 2 m/s 742 mmHg 43%
    12:00 +19°C° 0 mm 2 m/s 742 mmHg 40%
    13:00 +20°C° 0 mm 1 m/s 742 mmHg 37%
    14:00 +20°C° 0 mm 1 m/s 742 mmHg 37%
    15:00 +19°C° 0 mm 2 m/s 742 mmHg 37%
    16:00 +19°C° 0 mm 2 m/s 742 mmHg 37%
    17:00 +19°C° 0 mm 1 m/s 742 mmHg 44%
    18:00 +18°C° 0 mm 1 m/s 742 mmHg 52%
    19:00 +18°C° 0 mm 1 m/s 742 mmHg 59%
    20:00 +14°C° 0 mm 1 m/s 742 mmHg 64%
    21:00 +12°C° 0 mm 1 m/s 742 mmHg 69%
    22:00 +9°C° 0 mm 0 m/s 742 mmHg 73%
    23:00 +8°C° 0 mm 0 m/s 743 mmHg 75%

    5 Junho, Sexta-feira

    Tempo Temperatura Precipitação Vento Pressão Humidade
    00:00 +8°C° 0 mm 0 m/s 743 mmHg 77%
    01:00 +7°C° 0 mm 0 m/s 743 mmHg 78%
    02:00 +7°C° 0 mm 0 m/s 743 mmHg 78%
    03:00 +7°C° 0 mm 0 m/s 744 mmHg 78%
    04:00 +7°C° 0 mm 0 m/s 744 mmHg 78%
    05:00 +10°C° 0 mm 0 m/s 744 mmHg 70%
    06:00 +12°C° 0 mm 0 m/s 744 mmHg 63%
    07:00 +15°C° 0 mm 0 m/s 744 mmHg 56%
    08:00 +16°C° 0 mm 0 m/s 745 mmHg 50%
    09:00 +20°C° 0 mm 1 m/s 745 mmHg 44%
    10:00 +21°C° 0 mm 1 m/s 745 mmHg 38%
    11:00 +20°C° 0 mm 2 m/s 744 mmHg 36%
    12:00 +21°C° 0 mm 2 m/s 744 mmHg 35%
    13:00 +23°C° 0 mm 2 m/s 744 mmHg 33%
    14:00 +23°C° 0 mm 2 m/s 744 mmHg 33%
    15:00 +23°C° 0 mm 2 m/s 744 mmHg 33%
    16:00 +23°C° 0 mm 2 m/s 744 mmHg 34%
    17:00 +21°C° 0 mm 2 m/s 744 mmHg 41%
    18:00 +20°C° 0 mm 2 m/s 744 mmHg 49%
    19:00 +20°C° 0 mm 1 m/s 744 mmHg 57%
    20:00 +18°C° 0 mm 1 m/s 744 mmHg 60%
    21:00 +15°C° 0 mm 1 m/s 744 mmHg 63%
    22:00 +13°C° 0 mm 1 m/s 744 mmHg 65%
    23:00 +12°C° 0 mm 1 m/s 744 mmHg 68%
    Mostrar mais